Time,TemperatureF,DewpointF,PressureIn,WindDirection,WindDirectionDegrees,WindSpeedMPH,WindSpeedGustMPH,Humidity,HourlyPrecipIn,Conditions,Clouds,dailyrainin,SoftwareType,DateUTC
2013-09-09 00:00:00,63.0,31.5,30.06,WNW,296,0.0,0.0,30,0.00,,---,0.00,VWS V14.00,2013-09-09 07:00:00,
2013-09-09 00:10:00,64.0,33.2,30.06,WNW,296,0.0,0.0,32,0.00,,---,0.00,VWS V14.00,2013-09-09 07:10:00,
2013-09-09 00:15:00,64.8,33.1,30.06,WNW,296,0.0,0.0,30,0.00,,---,0.00,VWS V14.00,2013-09-09 07:15:00,
2013-09-09 00:20:00,65.0,32.4,30.06,WNW,296,0.0,0.0,30,0.00,,---,0.00,VWS V14.00,2013-09-09 07:20:00,
2013-09-09 00:25:00,63.8,32.2,30.06,WNW,296,0.0,0.0,30,0.00,,---,0.00,VWS V14.00,2013-09-09 07:25:00,
2013-09-09 00:35:00,63.4,31.9,30.06,WNW,296,0.0,0.0,30,0.00,,---,0.00,VWS V14.00,2013-09-09 07:35:00,
2013-09-09 00:40:00,62.5,31.1,30.06,WNW,296,0.0,0.0,30,0.00,,---,0.00,VWS V14.00,2013-09-09 07:40:00,
2013-09-09 00:45:00,61.2,30.7,30.06,WNW,296,0.0,0.0,32,0.00,,---,0.00,VWS V14.00,2013-09-09 07:45:00,
2013-09-09 00:50:00,60.4,31.6,30.06,WNW,296,0.0,0.0,34,0.00,,---,0.00,VWS V14.00,2013-09-09 07:50:00,
2013-09-09 00:55:00,60.9,31.2,30.06,WNW,296,0.0,0.0,32,0.00,,---,0.00,VWS V14.00,2013-09-09 07:55:00,
2013-09-09 01:00:00,61.7,32.0,30.06,WNW,296,0.0,0.0,32,0.00,,---,0.00,VWS V14.00,2013-09-09 08:00:00,
2013-09-09 01:05:00,61.7,31.2,30.07,WNW,296,0.0,0.0,32,0.00,,---,0.00,VWS V14.00,2013-09-09 08:05:00,
2013-09-09 01:10:00,61.5,31.0,30.07,WNW,296,0.0,0.0,32,0.00,,---,0.00,VWS V14.00,2013-09-09 08:10:00,
2013-09-09 01:15:00,61.5,31.0,30.06,WNW,296,0.0,0.0,32,0.00,,---,0.00,VWS V14.00,2013-09-09 08:15:00,
2013-09-09 01:20:00,61.8,31.3,30.06,WNW,296,0.0,0.0,32,0.00,,---,0.00,VWS V14.00,2013-09-09 08:20:00,
2013-09-09 01:25:00,60.8,30.4,30.06,WNW,296,0.0,0.0,32,0.00,,---,0.00,VWS V14.00,2013-09-09 08:25:00,
2013-09-09 01:30:00,60.3,30.7,30.06,WNW,296,0.0,0.0,32,0.00,,---,0.00,VWS V14.00,2013-09-09 08:30:00,
2013-09-09 01:35:00,60.6,31.0,30.06,WNW,296,0.0,0.0,32,0.00,,---,0.00,VWS V14.00,2013-09-09 08:35:00,
2013-09-09 01:40:00,60.3,30.7,30.06,WNW,296,0.0,0.0,32,0.00,,---,0.00,VWS V14.00,2013-09-09 08:40:00,
2013-09-09 01:45:00,59.9,30.4,30.06,WNW,296,0.0,0.0,32,0.00,,---,0.00,VWS V14.00,2013-09-09 08:45:00,
2013-09-09 01:50:00,60.3,31.5,30.06,WNW,296,0.0,0.0,34,0.00,,---,0.00,VWS V14.00,2013-09-09 08:50:00,
2013-09-09 01:55:00,61.2,30.7,30.06,WNW,296,0.0,0.0,32,0.00,,---,0.00,VWS V14.00,2013-09-09 08:55:00,
2013-09-09 02:00:00,61.0,30.6,30.06,WNW,296,0.0,0.0,32,0.00,,---,0.00,VWS V14.00,2013-09-09 09:00:00,
2013-09-09 02:05:00,60.7,30.3,30.06,WNW,296,0.0,0.0,32,0.00,,---,0.00,VWS V14.00,2013-09-09 09:05:00,
2013-09-09 02:10:00,60.1,29.8,30.06,WNW,296,0.0,0.0,32,0.00,,---,0.00,VWS V14.00,2013-09-09 09:10:00,
2013-09-09 02:20:00,59.5,30.0,30.06,WNW,296,0.0,0.0,32,0.00,,---,0.00,VWS V14.00,2013-09-09 09:20:00,
2013-09-09 02:25:00,59.2,29.8,30.06,WNW,296,0.0,0.0,32,0.00,,---,0.00,VWS V14.00,2013-09-09 09:25:00,
2013-09-09 02:30:00,58.9,29.5,30.06,WNW,296,0.0,0.0,32,0.00,,---,0.00,VWS V14.00,2013-09-09 09:30:00,
2013-09-09 02:40:00,59.4,29.9,30.06,WNW,296,0.0,0.0,32,0.00,,---,0.00,VWS V14.00,2013-09-09 09:40:00,
2013-09-09 02:45:00,60.5,30.9,30.06,WNW,296,0.0,0.0,32,0.00,,---,0.00,VWS V14.00,2013-09-09 09:45:00,
2013-09-09 02:50:00,61.2,30.7,30.06,WNW,296,0.0,0.0,32,0.00,,---,0.00,VWS V14.00,2013-09-09 09:50:00,
2013-09-09 02:55:00,60.8,29.6,30.06,WNW,296,0.0,0.0,30,0.00,,---,0.00,VWS V14.00,2013-09-09 09:55:00,
2013-09-09 03:00:00,60.3,30.0,30.06,WNW,296,0.0,0.0,32,0.00,,---,0.00,VWS V14.00,2013-09-09 10:00:00,
2013-09-09 03:05:00,61.1,30.6,30.06,WNW,296,0.0,0.0,32,0.00,,---,0.00,VWS V14.00,2013-09-09 10:05:00,
2013-09-09 03:10:00,61.2,30.0,30.06,WNW,296,0.0,0.0,30,0.00,,---,0.00,VWS V14.00,2013-09-09 10:10:00,
2013-09-09 03:15:00,61.3,30.0,30.06,WNW,296,0.0,0.0,30,0.00,,---,0.00,VWS V14.00,2013-09-09 10:15:00,
2013-09-09 03:20:00,60.5,29.3,30.06,WNW,296,0.0,0.0,30,0.00,,---,0.00,VWS V14.00,2013-09-09 10:20:00,
2013-09-09 03:25:00,58.4,29.1,30.07,WNW,296,0.0,0.0,32,0.00,,---,0.00,VWS V14.00,2013-09-09 10:25:00,
2013-09-09 03:30:00,57.7,28.5,30.07,WNW,296,0.0,0.0,32,0.00,,---,0.00,VWS V14.00,2013-09-09 10:30:00,
2013-09-09 03:35:00,58.0,29.5,30.07,WNW,296,0.0,0.0,34,0.00,,---,0.00,VWS V14.00,2013-09-09 10:35:00,
2013-09-09 03:40:00,57.2,28.8,30.07,WNW,296,0.0,0.0,34,0.00,,---,0.00,VWS V14.00,2013-09-09 10:40:00,
2013-09-09 03:45:00,57.8,29.3,30.07,WNW,296,0.0,0.0,34,0.00,,---,0.00,VWS V14.00,2013-09-09 10:45:00,
2013-09-09 03:50:00,59.1,29.7,30.07,WNW,296,0.0,0.0,32,0.00,,---,0.00,VWS V14.00,2013-09-09 10:50:00,
2013-09-09 03:55:00,58.4,29.1,30.07,WNW,296,0.0,0.0,32,0.00,,---,0.00,VWS V14.00,2013-09-09 10:55:00,
2013-09-09 04:00:00,56.8,29.1,30.07,WNW,296,0.0,0.0,34,0.00,,---,0.00,VWS V14.00,2013-09-09 11:00:00,
2013-09-09 04:05:00,57.0,30.0,30.07,WNW,296,0.0,0.0,36,0.00,,---,0.00,VWS V14.00,2013-09-09 11:05:00,
2013-09-09 04:10:00,58.6,30.7,30.06,WNW,296,0.0,0.0,34,0.00,,---,0.00,VWS V14.00,2013-09-09 11:10:00,
2013-09-09 04:20:00,61.5,31.0,30.06,WNW,296,0.0,0.0,32,0.00,,---,0.00,VWS V14.00,2013-09-09 11:20:00,
2013-09-09 04:25:00,62.1,31.5,30.07,WNW,296,0.0,0.0,32,0.00,,---,0.00,VWS V14.00,2013-09-09 11:25:00,
2013-09-09 04:30:00,62.2,30.8,30.07,WNW,296,0.0,0.0,30,0.00,,---,0.00,VWS V14.00,2013-09-09 11:30:00,
2013-09-09 04:35:00,61.7,31.2,30.07,WNW,296,0.0,0.0,32,0.00,,---,0.00,VWS V14.00,2013-09-09 11:35:00,
2013-09-09 04:40:00,61.0,31.3,30.07,WNW,296,0.0,0.0,32,0.00,,---,0.00,VWS V14.00,2013-09-09 11:40:00,
2013-09-09 04:45:00,60.2,31.4,30.07,WNW,296,0.0,0.0,34,0.00,,---,0.00,VWS V14.00,2013-09-09 11:45:00,
2013-09-09 04:50:00,59.5,30.8,30.07,WNW,296,0.0,0.0,34,0.00,,---,0.00,VWS V14.00,2013-09-09 11:50:00,
2013-09-09 04:55:00,59.3,32.0,30.07,WNW,296,0.0,0.0,36,0.00,,---,0.00,VWS V14.00,2013-09-09 11:55:00,
2013-09-09 05:00:00,59.5,32.2,30.07,WNW,296,0.0,0.0,36,0.00,,---,0.00,VWS V14.00,2013-09-09 12:00:00,
2013-09-09 05:05:00,59.0,31.0,30.07,WNW,296,0.0,0.0,34,0.00,,---,0.00,VWS V14.00,2013-09-09 12:05:00,
2013-09-09 05:10:00,59.0,31.8,30.07,WNW,296,0.0,0.0,36,0.00,,---,0.00,VWS V14.00,2013-09-09 12:10:00,
2013-09-09 05:15:00,58.5,30.6,30.07,WNW,296,0.0,0.0,34,0.00,,---,0.00,VWS V14.00,2013-09-09 12:15:00,
2013-09-09 05:20:00,57.2,30.2,30.08,WNW,296,0.0,0.0,36,0.00,,---,0.00,VWS V14.00,2013-09-09 12:20:00,
2013-09-09 05:25:00,55.8,29.6,30.07,WNW,296,0.0,0.0,36,0.00,,---,0.00,VWS V14.00,2013-09-09 12:25:00,
2013-09-09 05:30:00,56.1,29.9,30.08,WNW,296,0.0,0.0,36,0.00,,---,0.00,VWS V14.00,2013-09-09 12:30:00,
2013-09-09 05:35:00,56.3,30.0,30.08,WNW,296,0.0,0.0,36,0.00,,---,0.00,VWS V14.00,2013-09-09 12:35:00,
2013-09-09 05:40:00,56.0,29.1,30.08,WNW,296,0.0,0.0,36,0.00,,---,0.00,VWS V14.00,2013-09-09 12:40:00,
2013-09-09 05:45:00,54.8,28.7,30.08,WNW,296,0.0,0.0,36,0.00,,---,0.00,VWS V14.00,2013-09-09 12:45:00,
2013-09-09 05:50:00,54.5,29.1,30.08,WNW,296,0.0,0.0,38,0.00,,---,0.00,VWS V14.00,2013-09-09 12:50:00,
2013-09-09 05:55:00,55.1,29.6,30.08,WNW,296,0.0,0.0,38,0.00,,---,0.00,VWS V14.00,2013-09-09 12:55:00,
2013-09-09 06:00:00,55.7,29.5,30.08,WNW,296,0.0,0.0,36,0.00,,---,0.00,VWS V14.00,2013-09-09 13:00:00,
2013-09-09 06:05:00,56.2,30.0,30.08,WNW,296,0.0,0.0,36,0.00,,---,0.00,VWS V14.00,2013-09-09 13:05:00,
2013-09-09 06:10:00,56.2,29.3,30.08,WNW,296,0.0,0.0,36,0.00,,---,0.00,VWS V14.00,2013-09-09 13:10:00,
2013-09-09 06:15:00,55.1,29.0,30.08,WNW,296,0.0,0.0,36,0.00,,---,0.00,VWS V14.00,2013-09-09 13:15:00,
2013-09-09 06:20:00,55.4,30.6,30.08,WNW,296,0.0,0.0,38,0.00,,---,0.00,VWS V14.00,2013-09-09 13:20:00,
2013-09-09 06:25:00,56.3,30.0,30.08,WNW,296,0.0,0.0,36,0.00,,---,0.00,VWS V14.00,2013-09-09 13:25:00,
2013-09-09 06:30:00,56.1,30.5,30.08,WNW,296,0.0,0.0,38,0.00,,---,0.00,VWS V14.00,2013-09-09 13:30:00,
2013-09-09 06:35:00,57.1,30.1,30.08,WNW,296,0.0,0.0,36,0.00,,---,0.00,VWS V14.00,2013-09-09 13:35:00,
2013-09-09 06:40:00,56.6,30.3,30.08,WNW,296,0.0,0.0,36,0.00,,---,0.00,VWS V14.00,2013-09-09 13:40:00,
2013-09-09 06:45:00,56.9,29.9,30.08,WNW,296,0.0,0.0,36,0.00,,---,0.00,VWS V14.00,2013-09-09 13:45:00,
2013-09-09 06:50:00,57.0,30.7,30.09,WNW,296,0.0,0.0,36,0.00,,---,0.00,VWS V14.00,2013-09-09 13:50:00,
2013-09-09 07:00:00,57.6,29.8,30.09,WNW,296,0.0,0.0,34,0.00,,---,0.00,VWS V14.00,2013-09-09 14:00:00,
2013-09-09 07:10:00,57.1,29.4,30.09,WNW,296,0.0,0.0,34,0.00,,---,0.00,VWS V14.00,2013-09-09 14:10:00,
2013-09-09 07:15:00,56.6,28.9,30.09,WNW,296,0.0,0.0,34,0.00,,---,0.00,VWS V14.00,2013-09-09 14:15:00,
2013-09-09 07:20:00,56.3,29.4,30.09,WNW,296,0.0,0.0,36,0.00,,---,0.00,VWS V14.00,2013-09-09 14:20:00,
2013-09-09 07:25:00,57.3,30.2,30.09,WNW,296,0.0,0.0,36,0.00,,---,0.00,VWS V14.00,2013-09-09 14:25:00,
2013-09-09 07:30:00,58.4,31.2,30.09,WNW,296,0.0,0.0,36,0.00,,---,0.00,VWS V14.00,2013-09-09 14:30:00,
2013-09-09 07:35:00,59.0,31.0,30.09,WNW,296,0.0,0.0,34,0.00,,---,0.00,VWS V14.00,2013-09-09 14:35:00,
2013-09-09 07:40:00,59.3,31.3,30.09,WNW,296,0.0,0.0,34,0.00,,---,0.00,VWS V14.00,2013-09-09 14:40:00,
2013-09-09 07:45:00,60.0,31.2,30.10,WNW,296,0.0,0.0,34,0.00,,---,0.00,VWS V14.00,2013-09-09 14:45:00,
2013-09-09 07:50:00,60.8,31.9,30.10,WNW,296,0.0,0.0,34,0.00,,---,0.00,VWS V14.00,2013-09-09 14:50:00,
2013-09-09 07:55:00,61.3,31.6,30.10,WNW,296,0.0,0.0,32,0.00,,---,0.00,VWS V14.00,2013-09-09 14:55:00,
2013-09-09 08:00:00,61.5,31.8,30.10,WNW,296,0.0,0.0,32,0.00,,---,0.00,VWS V14.00,2013-09-09 15:00:00,
2013-09-09 08:05:00,61.6,31.9,30.10,WNW,296,0.0,0.0,32,0.00,,---,0.00,VWS V14.00,2013-09-09 15:05:00,
2013-09-09 08:10:00,61.9,31.4,30.10,WNW,296,0.0,0.0,32,0.00,,---,0.00,VWS V14.00,2013-09-09 15:10:00,
2013-09-09 08:15:00,62.0,32.2,30.10,WNW,296,0.0,0.0,32,0.00,,---,0.00,VWS V14.00,2013-09-09 15:15:00,
2013-09-09 08:20:00,62.1,32.3,30.09,WNW,296,0.0,0.0,32,0.00,,---,0.00,VWS V14.00,2013-09-09 15:20:00,
2013-09-09 08:25:00,62.3,31.7,30.10,WNW,296,0.0,0.0,32,0.00,,---,0.00,VWS V14.00,2013-09-09 15:25:00,
2013-09-09 08:30:00,62.7,32.0,30.10,WNW,296,0.0,0.0,32,0.00,,---,0.00,VWS V14.00,2013-09-09 15:30:00,
2013-09-09 08:35:00,62.9,32.2,30.10,WNW,296,0.0,0.0,32,0.00,,---,0.00,VWS V14.00,2013-09-09 15:35:00,
2013-09-09 08:40:00,62.9,32.2,30.10,WNW,298,0.0,0.0,32,0.00,,---,0.00,VWS V14.00,2013-09-09 15:40:00,
2013-09-09 08:45:00,63.1,32.4,30.10,WNW,298,0.0,0.0,32,0.00,,---,0.00,VWS V14.00,2013-09-09 15:45:00,
2013-09-09 08:50:00,63.5,32.8,30.09,WNW,298,0.0,0.0,32,0.00,,---,0.00,VWS V14.00,2013-09-09 15:50:00,
2013-09-09 08:55:00,64.1,32.5,30.10,WNW,298,0.0,0.0,30,0.00,,---,0.00,VWS V14.00,2013-09-09 15:55:00,
2013-09-09 09:00:00,64.7,33.0,30.09,WNW,298,0.0,0.0,30,0.00,,---,0.00,VWS V14.00,2013-09-09 16:00:00,
2013-09-09 09:05:00,65.3,32.7,30.10,WNW,298,0.0,0.0,30,0.00,,---,0.00,VWS V14.00,2013-09-09 16:05:00,
2013-09-09 09:10:00,65.8,32.3,30.10,WNW,298,0.0,0.0,28,0.00,,---,0.00,VWS V14.00,2013-09-09 16:10:00,
2013-09-09 09:15:00,66.5,32.9,30.09,WNW,298,0.0,0.0,28,0.00,,---,0.00,VWS V14.00,2013-09-09 16:15:00,
2013-09-09 09:20:00,67.1,32.5,30.09,WNW,298,0.0,0.0,28,0.00,,---,0.00,VWS V14.00,2013-09-09 16:20:00,
2013-09-09 09:25:00,67.4,32.7,30.09,WNW,298,0.0,0.0,28,0.00,,---,0.00,VWS V14.00,2013-09-09 16:25:00,
2013-09-09 09:30:00,67.5,32.8,30.09,WNW,298,0.0,0.0,28,0.00,,---,0.00,VWS V14.00,2013-09-09 16:30:00,
2013-09-09 09:35:00,67.6,33.8,30.09,WNW,298,0.0,0.0,28,0.00,,---,0.00,VWS V14.00,2013-09-09 16:35:00,
2013-09-09 09:40:00,68.0,33.3,30.09,WNW,298,0.0,0.0,28,0.00,,---,0.00,VWS V14.00,2013-09-09 16:40:00,
2013-09-09 09:45:00,68.6,33.8,30.09,WNW,298,0.0,0.0,28,0.00,,---,0.00,VWS V14.00,2013-09-09 16:45:00,
2013-09-09 09:50:00,68.8,34.0,30.09,WNW,298,0.0,0.0,28,0.00,,---,0.00,VWS V14.00,2013-09-09 16:50:00,
2013-09-09 09:55:00,68.9,34.0,30.09,WNW,298,0.0,6.0,28,0.00,,---,0.00,VWS V14.00,2013-09-09 16:55:00,
2013-09-09 10:00:00,69.5,34.5,30.09,WNW,298,4.0,7.0,28,0.00,,---,0.00,VWS V14.00,2013-09-09 17:00:00,
2013-09-09 10:05:00,69.6,34.6,30.09,WNW,298,4.0,7.0,28,0.00,,---,0.00,VWS V14.00,2013-09-09 17:05:00,
2013-09-09 10:10:00,69.8,34.8,30.09,WNW,298,5.0,7.0,28,0.00,,---,0.00,VWS V14.00,2013-09-09 17:10:00,
2013-09-09 10:15:00,70.1,36.0,30.09,WNW,298,5.0,7.0,28,0.00,,---,0.00,VWS V14.00,2013-09-09 17:15:00,
2013-09-09 10:20:00,70.2,36.0,30.09,WNW,298,2.0,6.0,28,0.00,,---,0.00,VWS V14.00,2013-09-09 17:20:00,
2013-09-09 10:25:00,70.6,35.5,30.09,WNW,298,2.0,7.0,28,0.00,,---,0.00,VWS V14.00,2013-09-09 17:25:00,
2013-09-09 10:30:00,71.0,35.8,30.09,WNW,298,6.0,7.0,28,0.00,,---,0.00,VWS V14.00,2013-09-09 17:30:00,
2013-09-09 10:35:00,71.2,36.0,30.08,WNW,298,7.0,8.0,28,0.00,,---,0.00,VWS V14.00,2013-09-09 17:35:00,
2013-09-09 10:40:00,71.3,35.2,30.08,WNW,298,5.0,7.0,26,0.00,,---,0.00,VWS V14.00,2013-09-09 17:40:00,
2013-09-09 10:50:00,72.6,36.3,30.08,WNW,298,0.0,7.0,26,0.00,,---,0.00,VWS V14.00,2013-09-09 17:50:00,
2013-09-09 10:55:00,73.1,35.7,30.08,WNW,298,3.0,8.0,26,0.00,,---,0.00,VWS V14.00,2013-09-09 17:55:00,
2013-09-09 11:00:00,73.7,36.2,30.08,WNW,298,5.0,8.0,26,0.00,,---,0.00,VWS V14.00,2013-09-09 18:00:00,
2013-09-09 11:05:00,73.8,36.3,30.08,WNW,298,2.0,7.0,26,0.00,,---,0.00,VWS V14.00,2013-09-09 18:05:00,
2013-09-09 11:10:00,74.4,36.8,30.08,WNW,298,6.0,9.0,26,0.00,,---,0.00,VWS V14.00,2013-09-09 18:10:00,
2013-09-09 11:15:00,75.1,37.4,30.08,WNW,298,6.0,8.0,26,0.00,,---,0.00,VWS V14.00,2013-09-09 18:15:00,
2013-09-09 11:20:00,74.9,37.2,30.07,WNW,298,6.0,10.0,26,0.00,,---,0.00,VWS V14.00,2013-09-09 18:20:00,
2013-09-09 11:25:00,75.0,36.3,30.07,WNW,298,1.0,9.0,24,0.00,,---,0.00,VWS V14.00,2013-09-09 18:25:00,
2013-09-09 11:30:00,75.7,36.9,30.07,WNW,298,6.0,9.0,24,0.00,,---,0.00,VWS V14.00,2013-09-09 18:30:00,
2013-09-09 11:35:00,76.0,37.2,30.07,WNW,298,6.0,10.0,24,0.00,,---,0.00,VWS V14.00,2013-09-09 18:35:00,
2013-09-09 11:40:00,76.1,37.2,30.07,WNW,298,0.0,8.0,24,0.00,,---,0.00,VWS V14.00,2013-09-09 18:40:00,
2013-09-09 11:45:00,76.6,36.6,30.07,WNW,298,0.0,0.0,24,0.00,,---,0.00,VWS V14.00,2013-09-09 18:45:00,
2013-09-09 11:50:00,76.2,36.3,30.07,WNW,298,6.0,8.0,24,0.00,,---,0.00,VWS V14.00,2013-09-09 18:50:00,
2013-09-09 11:55:00,76.0,37.2,30.06,WNW,298,6.0,9.0,24,0.00,,---,0.00,VWS V14.00,2013-09-09 18:55:00,
2013-09-09 12:05:00,78.0,37.8,30.06,WNW,298,5.0,8.0,24,0.00,,---,0.00,VWS V14.00,2013-09-09 19:05:00,
2013-09-09 12:10:00,78.0,36.7,30.06,WNW,298,0.0,9.0,22,0.00,,---,0.00,VWS V14.00,2013-09-09 19:10:00,
2013-09-09 12:15:00,77.8,36.5,30.06,WNW,298,0.0,0.0,22,0.00,,---,0.00,VWS V14.00,2013-09-09 19:15:00,
2013-09-09 12:20:00,78.1,37.9,30.05,WNW,298,0.0,6.0,24,0.00,,---,0.00,VWS V14.00,2013-09-09 19:20:00,
2013-09-09 12:25:00,78.4,37.0,30.05,WNW,298,0.0,6.0,22,0.00,,---,0.00,VWS V14.00,2013-09-09 19:25:00,
2013-09-09 12:30:00,78.9,37.4,30.05,WNW,298,0.0,10.0,22,0.00,,---,0.00,VWS V14.00,2013-09-09 19:30:00,
2013-09-09 12:35:00,78.9,36.3,30.05,WNW,298,0.0,7.0,22,0.00,,---,0.00,VWS V14.00,2013-09-09 19:35:00,
2013-09-09 12:40:00,78.9,36.3,30.05,WNW,298,0.0,8.0,22,0.00,,---,0.00,VWS V14.00,2013-09-09 19:40:00,
2013-09-09 12:45:00,79.6,36.9,30.05,WNW,298,5.0,5.0,22,0.00,,---,0.00,VWS V14.00,2013-09-09 19:45:00,
2013-09-09 12:50:00,79.9,37.1,30.04,WNW,298,6.0,9.0,22,0.00,,---,0.00,VWS V14.00,2013-09-09 19:50:00,
2013-09-09 12:55:00,80.0,37.2,30.04,WNW,298,1.0,8.0,22,0.00,,---,0.00,VWS V14.00,2013-09-09 19:55:00,
2013-09-09 13:05:00,80.1,36.1,30.04,WNW,300,5.0,7.0,20,0.00,,---,0.00,VWS V14.00,2013-09-09 20:05:00,
2013-09-09 13:10:00,80.1,34.8,30.04,WNW,300,0.0,8.0,20,0.00,,---,0.00,VWS V14.00,2013-09-09 20:10:00,
2013-09-09 13:20:00,81.0,35.5,30.03,WNW,299,6.0,7.0,20,0.00,,---,0.00,VWS V14.00,2013-09-09 20:20:00,
2013-09-09 13:30:00,81.7,36.1,30.03,NW,306,6.0,8.0,20,0.00,,---,0.00,VWS V14.00,2013-09-09 20:30:00,
2013-09-09 13:35:00,82.0,32.2,30.03,NW,306,0.0,12.0,16,0.00,,---,0.00,VWS V14.00,2013-09-09 20:35:00,
2013-09-09 13:40:00,82.1,35.1,30.02,NW,306,9.0,13.0,18,0.00,,---,0.00,VWS V14.00,2013-09-09 20:40:00,
2013-09-09 13:45:00,81.8,33.5,30.02,NW,306,0.0,9.0,18,0.00,,---,0.00,VWS V14.00,2013-09-09 20:45:00,
2013-09-09 13:50:00,82.2,35.2,30.02,NW,306,0.0,0.0,18,0.00,,---,0.00,VWS V14.00,2013-09-09 20:50:00,
2013-09-09 13:55:00,83.2,33.2,30.02,NNW,338,10.0,13.0,16,0.00,,---,0.00,VWS V14.00,2013-09-09 20:55:00,
2013-09-09 14:00:00,83.1,33.1,30.02,NNW,345,5.0,13.0,16,0.00,,---,0.00,VWS V14.00,2013-09-09 21:00:00,
2013-09-09 14:05:00,83.2,33.2,30.01,North,350,5.0,13.0,16,0.00,,---,0.00,VWS V14.00,2013-09-09 21:05:00,
2013-09-09 14:10:00,83.2,33.2,30.01,North,349,0.0,11.0,16,0.00,,---,0.00,VWS V14.00,2013-09-09 21:10:00,
2013-09-09 14:15:00,83.8,33.6,30.01,NNW,340,9.0,12.0,16,0.00,,---,0.00,VWS V14.00,2013-09-09 21:15:00,
2013-09-09 14:20:00,83.4,33.3,30.01,NNW,335,7.0,12.0,16,0.00,,---,0.00,VWS V14.00,2013-09-09 21:20:00,
2013-09-09 14:25:00,83.6,33.5,30.01,NNW,335,0.0,10.0,16,0.00,,---,0.00,VWS V14.00,2013-09-09 21:25:00,
2013-09-09 14:30:00,84.0,33.8,30.01,NNW,334,5.0,12.0,16,0.00,,---,0.00,VWS V14.00,2013-09-09 21:30:00,
2013-09-09 14:35:00,84.0,33.8,30.00,NNW,338,5.0,9.0,16,0.00,,---,0.00,VWS V14.00,2013-09-09 21:35:00,
2013-09-09 14:40:00,84.1,33.9,30.01,NNW,338,0.0,11.0,16,0.00,,---,0.00,VWS V14.00,2013-09-09 21:40:00,
2013-09-09 14:45:00,84.4,32.6,30.00,NNW,338,0.0,0.0,16,0.00,,---,0.00,VWS V14.00,2013-09-09 21:45:00,
2013-09-09 14:50:00,84.9,33.0,30.00,NNW,338,4.0,8.0,16,0.00,,---,0.00,VWS V14.00,2013-09-09 21:50:00,
2013-09-09 14:55:00,85.2,34.8,30.00,NNW,337,6.0,8.0,16,0.00,,---,0.00,VWS V14.00,2013-09-09 21:55:00,
2013-09-09 15:00:00,85.3,33.3,30.00,NNW,342,14.0,18.0,16,0.00,,---,0.00,VWS V14.00,2013-09-09 22:00:00,
2013-09-09 15:05:00,84.6,32.7,30.00,NNW,342,8.0,14.0,16,0.00,,---,0.00,VWS V14.00,2013-09-09 22:05:00,
2013-09-09 15:15:00,84.1,32.3,30.00,NNW,346,8.0,12.0,16,0.00,,---,0.00,VWS V14.00,2013-09-09 22:15:00,
2013-09-09 15:20:00,84.2,32.4,29.99,NNW,346,2.0,11.0,16,0.00,,---,0.00,VWS V14.00,2013-09-09 22:20:00,
2013-09-09 15:25:00,84.5,31.0,29.99,NNW,346,5.0,7.0,14,0.00,,---,0.00,VWS V14.00,2013-09-09 22:25:00,
2013-09-09 15:30:00,84.5,32.6,29.99,NNW,346,8.0,8.0,16,0.00,,---,0.00,VWS V14.00,2013-09-09 22:30:00,
2013-09-09 15:40:00,84.3,32.5,29.99,NNW,345,2.0,8.0,16,0.00,,---,0.00,VWS V14.00,2013-09-09 22:40:00,
2013-09-09 15:45:00,84.1,32.3,29.99,NNW,345,2.0,5.0,16,0.00,,---,0.00,VWS V14.00,2013-09-09 22:45:00,
2013-09-09 15:50:00,84.7,32.8,29.98,NNW,346,5.0,9.0,16,0.00,,---,0.00,VWS V14.00,2013-09-09 22:50:00,
2013-09-09 15:55:00,84.7,32.8,29.98,NNW,346,4.0,6.0,16,0.00,,---,0.00,VWS V14.00,2013-09-09 22:55:00,
2013-09-09 16:05:00,85.3,31.6,29.98,North,355,18.0,18.0,14,0.00,,---,0.00,VWS V14.00,2013-09-09 23:05:00,
2013-09-09 16:10:00,84.7,31.1,29.98,North,355,2.0,20.0,14,0.00,,---,0.00,VWS V14.00,2013-09-09 23:10:00,
2013-09-09 16:15:00,84.5,31.0,29.98,North,355,0.0,8.0,14,0.00,,---,0.00,VWS V14.00,2013-09-09 23:15:00,
2013-09-09 16:20:00,85.0,31.4,29.98,North,360,11.0,15.0,14,0.00,,---,0.00,VWS V14.00,2013-09-09 23:20:00,
2013-09-09 16:25:00,84.9,29.5,29.98,North,5,4.0,15.0,14,0.00,,---,0.00,VWS V14.00,2013-09-09 23:25:00,
2013-09-09 16:35:00,84.7,31.1,29.97,North,5,2.0,12.0,14,0.00,,---,0.00,VWS V14.00,2013-09-09 23:35:00,
2013-09-09 16:40:00,84.7,32.8,29.97,North,5,10.0,15.0,16,0.00,,---,0.00,VWS V14.00,2013-09-09 23:40:00,
2013-09-09 16:45:00,84.3,32.5,29.97,North,5,6.0,16.0,16,0.00,,---,0.00,VWS V14.00,2013-09-09 23:45:00,
2013-09-09 16:55:00,84.6,31.1,29.97,NNW,340,2.0,13.0,14,0.00,,---,0.00,VWS V14.00,2013-09-09 23:55:00,
2013-09-09 17:00:00,84.6,32.7,29.97,NNW,340,7.0,13.0,16,0.00,,---,0.00,VWS V14.00,2013-09-10 00:00:00,
2013-09-09 17:05:00,84.6,34.3,29.97,NNW,340,7.0,11.0,16,0.00,,---,0.00,VWS V14.00,2013-09-10 00:05:00,
2013-09-09 17:10:00,84.5,34.2,29.97,NNW,333,11.0,15.0,16,0.00,,---,0.00,VWS V14.00,2013-09-10 00:10:00,
2013-09-09 17:15:00,84.5,32.6,29.97,NNW,338,6.0,14.0,16,0.00,,---,0.00,VWS V14.00,2013-09-10 00:15:00,
2013-09-09 17:25:00,84.0,33.8,29.97,North,349,5.0,12.0,16,0.00,,---,0.00,VWS V14.00,2013-09-10 00:25:00,
2013-09-09 17:30:00,83.9,33.7,29.97,North,349,8.0,10.0,16,0.00,,---,0.00,VWS V14.00,2013-09-10 00:30:00,
2013-09-09 17:35:00,83.8,35.1,29.97,NNW,337,14.0,14.0,18,0.00,,---,0.00,VWS V14.00,2013-09-10 00:35:00,
2013-09-09 17:40:00,83.5,34.9,29.97,NNW,331,9.0,15.0,18,0.00,,---,0.00,VWS V14.00,2013-09-10 00:40:00,
2013-09-09 17:45:00,83.4,34.8,29.97,NNW,333,6.0,14.0,18,0.00,,---,0.00,VWS V14.00,2013-09-10 00:45:00,
2013-09-09 17:55:00,83.3,34.7,29.97,NNW,333,11.0,14.0,18,0.00,,---,0.00,VWS V14.00,2013-09-10 00:55:00,
2013-09-09 18:00:00,83.1,34.5,29.97,NNW,333,0.0,13.0,18,0.00,,---,0.00,VWS V14.00,2013-09-10 01:00:00,
2013-09-09 18:05:00,83.2,34.6,29.97,NNW,335,10.0,13.0,18,0.00,,---,0.00,VWS V14.00,2013-09-10 01:05:00,
2013-09-09 18:10:00,83.0,34.5,29.97,NNW,340,6.0,12.0,18,0.00,,---,0.00,VWS V14.00,2013-09-10 01:10:00,
2013-09-09 18:15:00,82.8,34.3,29.97,NNW,340,6.0,13.0,18,0.00,,---,0.00,VWS V14.00,2013-09-10 01:15:00,
2013-09-09 18:25:00,82.4,34.0,29.97,NNW,342,14.0,15.0,18,0.00,,---,0.00,VWS V14.00,2013-09-10 01:25:00,
2013-09-09 18:35:00,81.8,33.5,29.97,NNW,344,7.0,9.0,18,0.00,,---,0.00,VWS V14.00,2013-09-10 01:35:00,
2013-09-09 18:40:00,81.6,34.7,29.97,NNW,347,13.0,13.0,18,0.00,,---,0.00,VWS V14.00,2013-09-10 01:40:00,
2013-09-09 18:45:00,81.0,34.2,29.97,NNW,346,6.0,15.0,18,0.00,,---,0.00,VWS V14.00,2013-09-10 01:45:00,
2013-09-09 18:55:00,80.3,33.7,29.97,NNW,347,6.0,12.0,18,0.00,,---,0.00,VWS V14.00,2013-09-10 01:55:00,
2013-09-09 19:05:00,79.5,34.3,29.97,NNW,348,6.0,12.0,20,0.00,,---,0.00,VWS V14.00,2013-09-10 02:05:00,
2013-09-09 19:10:00,78.9,33.8,29.97,NNW,348,2.0,9.0,20,0.00,,---,0.00,VWS V14.00,2013-09-10 02:10:00,
2013-09-09 19:15:00,78.5,34.8,29.97,NNW,348,2.0,9.0,20,0.00,,---,0.00,VWS V14.00,2013-09-10 02:15:00,
2013-09-09 19:20:00,78.0,34.3,29.97,NNW,348,3.0,9.0,20,0.00,,---,0.00,VWS V14.00,2013-09-10 02:20:00,
2013-09-09 19:25:00,77.6,34.0,29.98,NNW,348,4.0,8.0,20,0.00,,---,0.00,VWS V14.00,2013-09-10 02:25:00,
2013-09-09 19:30:00,77.4,33.8,29.98,North,350,7.0,11.0,20,0.00,,---,0.00,VWS V14.00,2013-09-10 02:30:00,
2013-09-09 19:35:00,77.1,33.6,29.98,North,350,2.0,9.0,20,0.00,,---,0.00,VWS V14.00,2013-09-10 02:35:00,
2013-09-09 19:40:00,76.5,34.3,29.98,North,350,0.0,6.0,22,0.00,,---,0.00,VWS V14.00,2013-09-10 02:40:00,
2013-09-09 19:45:00,75.5,33.5,29.98,North,350,0.0,0.0,22,0.00,,---,0.00,VWS V14.00,2013-09-10 02:45:00,
2013-09-09 19:50:00,74.6,33.8,29.98,North,350,0.0,0.0,22,0.00,,---,0.00,VWS V14.00,2013-09-10 02:50:00,
2013-09-09 19:55:00,73.7,33.1,29.98,North,350,0.0,0.0,22,0.00,,---,0.00,VWS V14.00,2013-09-10 02:55:00,
2013-09-09 20:00:00,73.1,32.6,29.99,North,350,0.0,0.0,22,0.00,,---,0.00,VWS V14.00,2013-09-10 03:00:00,
2013-09-09 20:05:00,72.8,33.4,29.99,North,350,3.0,5.0,24,0.00,,---,0.00,VWS V14.00,2013-09-10 03:05:00,
2013-09-09 20:10:00,72.8,33.4,29.99,North,350,0.0,5.0,24,0.00,,---,0.00,VWS V14.00,2013-09-10 03:10:00,
2013-09-09 20:15:00,72.6,33.2,29.99,North,350,0.0,1.0,24,0.00,,---,0.00,VWS V14.00,2013-09-10 03:15:00,
2013-09-09 20:20:00,72.2,32.9,30.00,North,350,0.0,0.0,24,0.00,,---,0.00,VWS V14.00,2013-09-10 03:20:00,
2013-09-09 20:25:00,72.1,32.8,30.00,North,350,0.0,0.0,24,0.00,,---,0.00,VWS V14.00,2013-09-10 03:25:00,
2013-09-09 20:30:00,72.1,32.8,30.00,North,350,0.0,0.0,24,0.00,,---,0.00,VWS V14.00,2013-09-10 03:30:00,
2013-09-09 20:40:00,71.7,32.5,30.00,North,350,4.0,7.0,24,0.00,,---,0.00,VWS V14.00,2013-09-10 03:40:00,
2013-09-09 20:45:00,71.3,32.2,30.00,North,350,0.0,6.0,24,0.00,,---,0.00,VWS V14.00,2013-09-10 03:45:00,
2013-09-09 20:50:00,70.7,32.7,30.00,North,350,0.0,0.0,24,0.00,,---,0.00,VWS V14.00,2013-09-10 03:50:00,
2013-09-09 20:55:00,70.3,32.3,30.00,North,350,0.0,0.0,24,0.00,,---,0.00,VWS V14.00,2013-09-10 03:55:00,
2013-09-09 21:00:00,70.2,32.3,30.00,North,350,0.0,0.0,24,0.00,,---,0.00,VWS V14.00,2013-09-10 04:00:00,
2013-09-09 21:05:00,70.1,32.2,30.01,North,350,0.0,0.0,24,0.00,,---,0.00,VWS V14.00,2013-09-10 04:05:00,
2013-09-09 21:10:00,70.1,32.2,30.01,North,350,0.0,0.0,24,0.00,,---,0.00,VWS V14.00,2013-09-10 04:10:00,
2013-09-09 21:15:00,69.9,33.0,30.01,North,350,0.0,0.0,26,0.00,,---,0.00,VWS V14.00,2013-09-10 04:15:00,
2013-09-09 21:20:00,70.3,33.3,30.01,North,350,0.0,0.0,26,0.00,,---,0.00,VWS V14.00,2013-09-10 04:20:00,
2013-09-09 21:25:00,70.6,32.6,30.01,North,350,0.0,0.0,24,0.00,,---,0.00,VWS V14.00,2013-09-10 04:25:00,
2013-09-09 21:30:00,70.5,33.5,30.01,North,350,0.0,0.0,26,0.00,,---,0.00,VWS V14.00,2013-09-10 04:30:00,
2013-09-09 21:35:00,70.4,33.4,30.01,North,350,0.0,0.0,26,0.00,,---,0.00,VWS V14.00,2013-09-10 04:35:00,
2013-09-09 21:40:00,70.2,33.3,30.01,North,350,0.0,0.0,26,0.00,,---,0.00,VWS V14.00,2013-09-10 04:40:00,
2013-09-09 21:50:00,70.0,33.1,30.02,North,350,0.0,0.0,26,0.00,,---,0.00,VWS V14.00,2013-09-10 04:50:00,
2013-09-09 21:55:00,70.1,33.2,30.02,North,350,0.0,0.0,26,0.00,,---,0.00,VWS V14.00,2013-09-10 04:55:00,
2013-09-09 22:00:00,70.0,33.1,30.02,North,350,0.0,0.0,26,0.00,,---,0.00,VWS V14.00,2013-09-10 05:00:00,
2013-09-09 22:05:00,70.0,33.1,30.02,North,350,0.0,0.0,26,0.00,,---,0.00,VWS V14.00,2013-09-10 05:05:00,
2013-09-09 22:10:00,69.7,32.8,30.02,North,350,0.0,0.0,26,0.00,,---,0.00,VWS V14.00,2013-09-10 05:10:00,
2013-09-09 22:15:00,69.3,32.5,30.02,North,350,0.0,0.0,26,0.00,,---,0.00,VWS V14.00,2013-09-10 05:15:00,
2013-09-09 22:20:00,69.4,32.6,30.02,North,350,0.0,0.0,26,0.00,,---,0.00,VWS V14.00,2013-09-10 05:20:00,
2013-09-09 22:25:00,69.9,33.0,30.02,North,350,0.0,0.0,26,0.00,,---,0.00,VWS V14.00,2013-09-10 05:25:00,
2013-09-09 22:30:00,70.4,32.4,30.02,North,350,0.0,0.0,24,0.00,,---,0.00,VWS V14.00,2013-09-10 05:30:00,
2013-09-09 22:35:00,70.0,32.1,30.02,North,350,0.0,0.0,24,0.00,,---,0.00,VWS V14.00,2013-09-10 05:35:00,
2013-09-09 22:40:00,69.6,31.8,30.02,North,350,0.0,0.0,24,0.00,,---,0.00,VWS V14.00,2013-09-10 05:40:00,
2013-09-09 22:45:00,69.6,31.8,30.03,North,350,0.0,0.0,24,0.00,,---,0.00,VWS V14.00,2013-09-10 05:45:00,
2013-09-09 22:50:00,69.1,32.3,30.03,North,350,0.0,0.0,26,0.00,,---,0.00,VWS V14.00,2013-09-10 05:50:00,
2013-09-09 22:55:00,69.7,32.8,30.03,North,350,0.0,0.0,26,0.00,,---,0.00,VWS V14.00,2013-09-10 05:55:00,
2013-09-09 23:05:00,70.2,32.3,30.03,North,350,0.0,0.0,24,0.00,,---,0.00,VWS V14.00,2013-09-10 06:05:00,
2013-09-09 23:10:00,70.0,32.1,30.03,North,350,0.0,0.0,24,0.00,,---,0.00,VWS V14.00,2013-09-10 06:10:00,
2013-09-09 23:15:00,69.9,32.0,30.03,North,350,0.0,0.0,24,0.00,,---,0.00,VWS V14.00,2013-09-10 06:15:00,
2013-09-09 23:20:00,69.9,32.0,30.03,North,350,0.0,0.0,24,0.00,,---,0.00,VWS V14.00,2013-09-10 06:20:00,
2013-09-09 23:25:00,70.2,32.3,30.03,North,350,0.0,0.0,24,0.00,,---,0.00,VWS V14.00,2013-09-10 06:25:00,
2013-09-09 23:30:00,70.1,32.2,30.03,North,350,0.0,0.0,24,0.00,,---,0.00,VWS V14.00,2013-09-10 06:30:00,
2013-09-09 23:35:00,70.0,32.1,30.03,North,350,0.0,0.0,24,0.00,,---,0.00,VWS V14.00,2013-09-10 06:35:00,
2013-09-09 23:40:00,69.7,31.8,30.03,North,350,0.0,0.0,24,0.00,,---,0.00,VWS V14.00,2013-09-10 06:40:00,
2013-09-09 23:45:00,69.4,31.6,30.03,North,350,0.0,0.0,24,0.00,,---,0.00,VWS V14.00,2013-09-10 06:45:00,
2013-09-09 23:50:00,69.2,31.4,30.03,North,350,0.0,0.0,24,0.00,,---,0.00,VWS V14.00,2013-09-10 06:50:00,
2013-09-09 23:55:00,69.0,31.2,30.03,North,350,0.0,0.0,24,0.00,,---,0.00,VWS V14.00,2013-09-10 06:55:00,